"Pseudo-MPEC" for P10ONKb

Created 2019 Jun 15 19:08:27 UT using Find_Orb

Click here for an explanation of pseudo-MPECs

 
 Astrometry: 
     P10ONKb  C2019 05 01]:'bDV^'V*k=yn3,NO?/pP_ny8X@O7WCv`c,DjO[Y(*FhXu-BF][F51
     P10ONKb  C2019 05 01:\srVH04F(d,kp*[gYq;!G)3vjUBM66c/ct2MbXULGvH\=\-w.e[F51
     P10ONKb  C2019 05 01B;KQ8ShNQkjcRuNXmu/1LR?j)'/d#KjUcCwk_(7*F/\A]oiX$_DPF51
     P10ONKb  C2019 05 017cu@j*_H/O#LrTr1\/;(R$!mAstrometry4%R2/Cu*=@iBxQE%#SF51
     P10ONKb  C2019 05 12wi5`*r$6vZ7CIpO[r1d5+-lM`CLe!%bjnHNfe;V_dMhy-`dKPIYBF51
     P10ONKb  C2019 05 12v??^tredacted;[dPH9(XYChra;a;!%N+Oa'%!(u=:m@-dHeCFSoF51
     P10ONKb  C2019 05 12aI0Kf\Sqe:SDtT8)DVC7PP!yoxy#H:LXqQDS+pry#t1C2:gC8XsBF51
     P10ONKb  C2019 06 07ZL82K;Z@A97L7j1a1dX+u!=jB:(!4J5:Gf1(,,uCYfgjN)!l;`BqF51
     P10ONKb  C2019 06 07X29rnn`r]!i+Ag'-b$fNk0NfICLk:*#.WKV=w:fE9g2@NND:5$Y=F51
     P10ONKb  C2019 06 07j(aqsUUPc2U@PR4H?Yb,E(ZsMNu,.4Q6OHc*#9HjnB@!VB@i^4g:F51
     P10ONKb  C2019 06 08.27425 17 00 09.66 -04 31 41.8    ~691q 21.7 GVNEOCPI52
     P10ONKb  C2019 06 08.27835 17 00 09.24 -04 31 45.8    ~691q 21.5 GVNEOCPI52
     P10ONKb  C2019 06 08.28001 17 00 09.09 -04 31 47.1    ~691q 21.2 GVNEOCPI52
     P10ONKb  C2019 06 08.28411 17 00 08.69 -04 31 51.3    ~691q 20.7 GVNEOCPI52
     P10ONKb |C2019 06 08-nB\d(kRY['[Ef_84)a0IbfE\U*bCKV*sx@]1jclick:Gqul74^%807
     P10ONKb |C2019 06 08=E5@-!fi0J+Sua7H9X_tCO4j!c68RuotSj(/0KsZWM/rWfv:@F(d807
     P10ONKb |C2019 06 08Gk!_CPWmJ1],tmXm'it6;9G'icu/c#N0oOJlY'_)lvherejfiH4p807
     P10ONKb KC2019 06 10k.``!-BkK=T4A(Ej1I\jPvNwr=b@Q2e:sK;G,Qea@,C?vUh2E.s;691
     P10ONKb KC2019 06 10'k3CedUP$NVt/#Z:hAZNey$@g7?`ymUZ^h#Jfor-Yexplanation691

Station data:
(691) Steward Observatory, Kitt Peak - Spacewatch  (N31.962174 W111.600327)
   US/Arizona.  Observer J. V. Scotti. 0.9-m f/3 reflector + CCD.
(807) Cerro Tololo Observatory, La Serena  (S30.169136 W70.805900)  Chile.
(F51) Pan-STARRS 1, Haleakala  (N20.707235 W156.255910)  US/Hawaii.
   Observers N. Primak, A. Schultz, S. Watters, J. Thiel, T. Goggia. Measurer
   PS1 Science Consortium. 1.8-m Ritchey-Chrétien + CCD.
(I52) Steward Observatory, Mt. Lemmon Station  (N32.442547 W110.788920)
   US/Arizona.  Observers T. A. Pruyne, B. M. Africano, E. J. Christensen, G.
   A. Farneth, D. C. Fuls, A. R. Gibbs, A. D. Grauer, H. Groeller, J. A.
   Johnson, R. A. Kowalski, S. M. Larson, G. J. Leonard, R. L. Seaman, F. C.
   Shelly. 1.0-m reflector + CCD.

Orbital elements:  P10ONKb
   Perihelion 2020 Feb 3.455348 +/- 0.142 TT = 10:55:42 (JD 2458882.955348)
Epoch 2019 Jun 10.0 TT = JDT 2458644.5   Earth MOID: 0.7751   AutoNEOCP
M 267.69258006 +/- 0.07             (J2000 ecliptic)
n   0.38710568 +/- 9.45e-5          Peri.  263.70186 +/- 0.033
a   1.86458857 +/- 0.000303         Node    94.56673 +/- 0.007
e   0.1003050 +/- 0.000312          Incl.   24.88440 +/- 0.010
P   2.55/929.96d           H 19.7   G  0.15   U  6.5  
q 1.67756098 +/- 0.000321    Q 2.05161617 +/- 0.000911
From 19 observations 2019 May 1-June 10; mean residual 0".15
Residuals in arcseconds: 
190501 F51  .02-  .02+    190607 F51  .29+  .17+    190608 807  .23-  .24+    
190501 F51  .09-  .03+    190607 F51  .09+  .12-    190608 807  .09+  .17+    
190501 F51  .01+  .00     190607 F51  .15+  .22-    190608 807  .06-  .20-    
190501 F51  .05+  .03+    190608 I52  .01+  .08+    190610 691  .09+  .20-    
190512 F51  .02+  .03-    190608 I52  .33-  .05-    190610 691  .14+  .08+    
190512 F51  .13-  .09-    190608 I52  .17-  .22+    
190512 F51  .18+  .02+    190608 I52  .22-  .11-    

Ephemerides (geocentric):
Date (UTC) HH   RA              Dec         delta   r     elong  mag " sig PA
---- -- -- --  -------------   -----------  ------ ------ -----  --- ---- ---
2019 06 15 19  16 48 27.002   -06 38 30.93  .89662 1.8834 160.0 21.5 .947  76
2019 06 15 20  16 48 23.157   -06 39 15.73  .89663 1.8834 160.0 21.5 .954  76
2019 06 15 21  16 48 19.313   -06 40 00.56  .89664 1.8833 160.0 21.5 .962  76
2019 06 15 22  16 48 15.469   -06 40 45.41  .89665 1.8833 159.9 21.5 .969  76
2019 06 15 23  16 48 11.627   -06 41 30.28  .89666 1.8832 159.9 21.5 .977  76
2019 06 16 00  16 48 07.786   -06 42 15.18  .89667 1.8832 159.9 21.5 .984  76
2019 06 16 01  16 48 03.946   -06 43 00.11  .89668 1.8831 159.9 21.5 0.99  76
2019 06 16 02  16 48 00.108   -06 43 45.06  .89669 1.8831 159.8 21.5 1.00  76
2019 06 16 03  16 47 56.270   -06 44 30.03  .89671 1.8830 159.8 21.5 1.01  76
2019 06 16 04  16 47 52.434   -06 45 15.03  .89672 1.8830 159.8 21.5 1.01  76
2019 06 16 05  16 47 48.598   -06 46 00.05  .89673 1.8829 159.8 21.5 1.02  76
2019 06 16 06  16 47 44.764   -06 46 45.10  .89675 1.8829 159.7 21.5 1.03  76
2019 06 16 07  16 47 40.931   -06 47 30.17  .89676 1.8828 159.7 21.5 1.04  76
2019 06 16 08  16 47 37.099   -06 48 15.27  .89678 1.8828 159.7 21.5 1.05  76
2019 06 16 09  16 47 33.269   -06 49 00.39  .89679 1.8827 159.7 21.5 1.05  76
2019 06 16 10  16 47 29.439   -06 49 45.53  .89681 1.8827 159.6 21.5 1.06  76
2019 06 16 11  16 47 25.611   -06 50 30.70  .89682 1.8826 159.6 21.5 1.07  76
2019 06 16 12  16 47 21.784   -06 51 15.89  .89684 1.8826 159.6 21.5 1.08  76
2019 06 16 13  16 47 17.959   -06 52 01.11  .89686 1.8825 159.6 21.5 1.08  76
2019 06 16 14  16 47 14.134   -06 52 46.35  .89687 1.8825 159.6 21.5 1.09  76
2019 06 16 15  16 47 10.311   -06 53 31.61  .89689 1.8824 159.5 21.5 1.10  76
2019 06 16 16  16 47 06.489   -06 54 16.90  .89691 1.8824 159.5 21.5 1.11  76
2019 06 16 17  16 47 02.668   -06 55 02.21  .89693 1.8823 159.5 21.5 1.12  76
2019 06 16 18  16 46 58.849   -06 55 47.55  .89695 1.8822 159.5 21.5 1.12  76
2019 06 16 19  16 46 55.031   -06 56 32.91  .89697 1.8822 159.4 21.5 1.13  76
2019 06 16 20  16 46 51.214   -06 57 18.29  .89699 1.8821 159.4 21.5 1.14  76
2019 06 16 21  16 46 47.398   -06 58 03.69  .89701 1.8821 159.4 21.5 1.15  76
2019 06 16 22  16 46 43.584   -06 58 49.12  .89703 1.8820 159.3 21.5 1.16  76
2019 06 16 23  16 46 39.771   -06 59 34.57  .89705 1.8820 159.3 21.5 1.16  76
2019 06 17 00  16 46 35.959   -07 00 20.05  .89707 1.8819 159.3 21.5 1.17  76
2019 06 17 01  16 46 32.149   -07 01 05.54  .89709 1.8819 159.3 21.5 1.18  76
2019 06 17 02  16 46 28.340   -07 01 51.06  .89712 1.8818 159.2 21.5 1.19  76
2019 06 17 03  16 46 24.532   -07 02 36.61  .89714 1.8818 159.2 21.5 1.20  76
2019 06 17 04  16 46 20.726   -07 03 22.18  .89716 1.8817 159.2 21.5 1.21  76
2019 06 17 05  16 46 16.921   -07 04 07.77  .89719 1.8817 159.2 21.5 1.21  76
2019 06 17 06  16 46 13.118   -07 04 53.38  .89721 1.8816 159.1 21.5 1.22  76
2019 06 17 07  16 46 09.316   -07 05 39.01  .89724 1.8816 159.1 21.5 1.23  76
2019 06 17 08  16 46 05.515   -07 06 24.67  .89726 1.8815 159.1 21.5 1.24  76
2019 06 17 09  16 46 01.716   -07 07 10.35  .89729 1.8815 159.1 21.5 1.25  76
2019 06 17 10  16 45 57.918   -07 07 56.06  .89731 1.8814 159.0 21.5 1.26  76
2019 06 17 11  16 45 54.121   -07 08 41.78  .89734 1.8814 159.0 21.5 1.26  76
2019 06 17 12  16 45 50.326   -07 09 27.53  .89737 1.8813 159.0 21.5 1.27  76
2019 06 17 13  16 45 46.533   -07 10 13.30  .89739 1.8813 159.0 21.5 1.28  76
2019 06 17 14  16 45 42.741   -07 10 59.09  .89742 1.8812 158.9 21.5 1.29  76
2019 06 17 15  16 45 38.950   -07 11 44.91  .89745 1.8812 158.9 21.5 1.30  75
2019 06 17 16  16 45 35.161   -07 12 30.74  .89748 1.8811 158.9 21.5 1.31  75
2019 06 17 17  16 45 31.373   -07 13 16.60  .89751 1.8811 158.8 21.5 1.31  75
2019 06 17 18  16 45 27.586   -07 14 02.48  .89754 1.8810 158.8 21.5 1.32  75